Home > Weather > Sandpoint > Past weeks

Flag for USA Weather for the Past 2 Weeks in Sandpoint, Idaho, USA

Now
77 °F

Sunny.


Feels Like: 77 °F
Forecast: 40 / 78 °F
Wind: No wind

Location: Sandpoint Airport

Current Time: May 3, 2016 at 1:47:47 PM

Latest Report: May 3, 2016 at 1:15 PM


Visibility: 10 mi

Pressure: 30.05 "Hg (27.94 "Hg at 636m altitude)

Humidity: 24%

Dew Point: 37 °F

Location of SandpointLocation

Historic Weather in Sandpoint — Graph

°F

Sandpoint Temperature Yesterday

Maximum temperature yesterday: 75 °F (at 3:35 PM)
Minimum temperature yesterday: 37 °F (at 4:35 AM)
Average temperature yesterday: 56 °F

High & Low Weather Summary for the Past Weeks

 TemperatureHumidityPressure
High79 °F (Apr 21, 1:55 PM)100% (Apr 19, 3:15 AM)30.30 "Hg (Apr 19, 3:15 AM)
Low34 °F (Apr 25, 3:15 AM)19% (Apr 18, 5:55 PM)29.56 "Hg (Apr 22, 5:15 AM)
Average53 °F66%29.98 "Hg
* Reported Apr 18 12:15 PM — May 3 12:35 PM, Sandpoint, Weather by CustomWeather, © 2016

Note: Actual official high and low records may vary slightly from our data, if they occured in-between our weather recording intervals... More about our weather records

Advertising

Sandpoint Weather History for the Previous 24 Hours

Scroll right to see more
 ConditionsComfort  
Time TempWeatherWind HumidityBarometerVisibility
12:35 PM
Tue, May 3
73 °FSunny.No wind29%30.07 "Hg10 mi
12:15 PM72 °FSunny.3 mph36%30.08 "Hg10 mi
11:55 AM72 °FSunny.3 mph38%30.08 "Hg10 mi
11:35 AM70 °FSunny.3 mph40%30.09 "Hg10 mi
11:15 AM68 °FSunny.5 mph40%30.10 "Hg10 mi
10:55 AM66 °FSunny.6 mph43%30.11 "Hg10 mi
10:35 AM64 °FSunny.6 mph49%30.11 "Hg10 mi
10:15 AM64 °FSunny.6 mph46%30.11 "Hg10 mi
9:55 AM63 °FSunny.6 mph49%30.11 "Hg10 mi
9:35 AM64 °FSunny.3 mph46%30.12 "Hg10 mi
9:15 AM63 °FSunny.5 mph45%30.12 "Hg10 mi
8:55 AM63 °FSunny.No wind49%30.12 "Hg10 mi
8:35 AM61 °FSunny.5 mph52%30.12 "Hg10 mi
8:15 AM57 °FSunny.No wind59%30.12 "Hg10 mi
7:55 AM54 °FSunny.No wind63%30.12 "Hg10 mi
7:35 AM52 °FSunny.No wind67%30.13 "Hg10 mi
7:15 AM50 °FSunny.No wind71%30.13 "Hg10 mi
6:55 AM46 °FSunny.No wind87%30.13 "Hg10 mi
6:35 AM43 °FSunny.No wind100%30.12 "Hg10 mi
6:15 AM41 °FClear.No wind93%30.12 "Hg10 mi
5:55 AM39 °FClear.No wind100%30.12 "Hg10 mi
5:15 AM41 °FClear.No wind93%30.11 "Hg10 mi
4:35 AM41 °FClear.No wind93%30.11 "Hg10 mi
4:15 AM41 °FClear.No wind100%30.10 "Hg10 mi
3:55 AM41 °FClear.No wind100%30.10 "Hg10 mi
3:35 AM41 °FClear.No wind100%30.10 "Hg10 mi
3:15 AM43 °FClear.No wind93%30.09 "Hg10 mi
2:55 AM43 °FClear.No wind93%30.09 "Hg10 mi
2:15 AM43 °FClear.No wind93%30.08 "Hg10 mi
1:55 AM43 °FClear.No wind93%30.08 "Hg10 mi
1:15 AM45 °FClear.No wind93%30.07 "Hg10 mi
12:55 AM45 °FClear.No wind93%30.07 "Hg10 mi
12:15 AM46 °FClear.No wind87%30.07 "Hg10 mi
11:55 PM
Mon, May 2
46 °FClear.No wind87%30.06 "Hg10 mi
11:35 PM46 °FClear.No wind87%30.06 "Hg10 mi
11:15 PM46 °FClear.No wind87%30.06 "Hg10 mi
10:35 PM50 °FClear.No wind76%30.06 "Hg10 mi
9:55 PM52 °FClear.3 mph77%30.06 "Hg10 mi
9:15 PM55 °FClear.No wind67%30.05 "Hg10 mi
8:55 PM55 °FSunny.No wind67%30.04 "Hg10 mi
8:15 PM59 °FSunny.No wind59%30.03 "Hg10 mi
7:55 PM61 °FSunny.No wind55%30.03 "Hg10 mi
7:15 PM66 °FSunny.No wind49%30.03 "Hg10 mi
6:15 PM73 °FSunny.5 mph27%30.03 "Hg10 mi
5:55 PM75 °FSunny.3 mph25%30.03 "Hg10 mi
5:15 PM75 °FSunny.6 mph24%30.04 "Hg10 mi
4:55 PM75 °FSunny.7 mph24%30.04 "Hg10 mi
4:35 PM75 °FSunny.7 mph25%30.04 "Hg10 mi
4:15 PM75 °FSunny.7 mph24%30.05 "Hg10 mi
3:55 PM75 °FSunny.8 mph24%30.05 "Hg10 mi
3:35 PM75 °FSunny.5 mph25%30.06 "Hg10 mi
3:15 PM73 °FSunny.6 mph27%30.07 "Hg10 mi
2:55 PM73 °FSunny.9 mph29%30.07 "Hg10 mi
2:15 PM72 °FSunny.7 mph33%30.09 "Hg10 mi
1:55 PM72 °FSunny.8 mph33%30.10 "Hg10 mi
1:35 PM72 °FSunny.6 mph33%30.10 "Hg10 mi
1:15 PM72 °FSunny.5 mph31%30.11 "Hg10 mi
Weather by CustomWeather, © 2016

See weather overviewHow to use our weather pages